Location: Songkhla
(7.2000°N, 100.6000°E)
Time: 02:42:53
(UTC+07:00)

First-Move - Pass Details

Date: 03 August 2021
Orbit: 576 x 665 km, 97.6° (Epoch: 20 September)

Event Time Altitude Azimuth Distance (km) Brightness Sun altitude
Rises 05:38:59 0° 341° (NNW) 2,970 ? -8.4°
Reaches altitude 10° 05:42:01 10° 319° (NW) 2,070 ? -7.7°
Maximum altitude 05:44:37 15° 283° (WNW) 1,750 ? -7.1°
Drops below altitude 10° 05:47:15 10° 248° (WSW) 2,081 ? -6.5°
Enters shadow 05:48:22 - 238° (WSW) 2,371 ? -6.2°
